Main page
METAR-TAF:

METAR-TAF

Airports :

Noshahr Airport

Noshahr, Iran

latitude: 36-39-48N, longitude: 051-27-53E, elevation: 0 m

Current weather observation

The report was made 12 minutes ago, at 08:00 UTC
Wind 8 kt from the Northwest
Temperature 29°C
Humidity 55%
Pressure 1011 hPa
Visibility 10 km or more
Few clouds at a height of 2500 ft, Towering cumulus.

METAR: OINN 250800Z 32008KT 9999 FEW025TCU 29/19 Q1011

Time: 12:42 (08:12 UTC)


TAF: missing

Weather observations and forecasts of more than 4000 airports (METAR and TAF reports).

The available stations are represented by yellow and red dots on the map.

Hover mouse over dot to see the name of the station.

Then click to see weather observations and forecasts.

To change the map : click on the green buttons with a black cross to zoom in, on the green button with a dash to zoom out, or on the green arrows for adjacent maps.


METAR-TAF: